Wetbulb
46.47 46.18 45.80 46.07 46.48 47.72 43.98 37.64 30.96 44.71 47.91 36.20 33.48 31.26 34.89 38.36 37.17 40.11 37.46 37.76 36.89 34.97 35.10 33.58 34.67 35.31 38.82 44.16 43.69 37.94 41.31 37.56 33.41 36.60 43.27 44.85 40.70 39.20 38.04 29.86 30.02 30.08 31.59 32.83
46.15 46.29 45.93 46.17 46.51 46.46 39.69 30.78 32.74 43.38 43.02 30.42 30.70 34.14 34.56 36.59 35.51 35.80 36.28 34.91 36.82 37.14 33.81 31.26 34.71 36.20 41.49 42.88 43.01 40.30 40.62 33.58 30.29 32.94 36.84 41.22 37.31 38.49 37.97 37.51 33.87 31.03 29.05 31.23
46.46 46.40 46.14 46.01 46.24 46.27 40.16 35.30 28.70 33.83 35.05 34.47 29.18 30.60 32.19 32.35 38.02 36.82 37.57 36.13 37.00 34.29 32.66 35.75 32.69 34.13 39.34 42.47 42.19 44.26 42.05 35.08 33.47 28.74 32.32 36.08 33.60 36.00 36.32 35.81 30.24 29.36 29.56 32.85
46.44 45.99 45.97 46.29 46.42 46.59 39.52 33.18 29.69 32.39 27.79 27.75 30.80 32.37 32.23 30.13 30.45 36.26 36.90 34.06 34.69 33.09 29.52 30.71 31.24 34.35 36.21 39.20 42.19 41.57 38.40 30.92 34.36 35.65 36.62 36.72 35.43 34.46 35.28 33.57 34.75 31.53 33.93 34.91
45.77 45.58 46.01 45.93 46.23 45.86 36.27 31.78 26.09 31.62 29.85 32.03 31.71 31.52 28.87 30.04 31.77 32.54 30.53 30.91 33.38 33.46 30.61 31.16 30.44 32.99 32.81 32.82 37.34 37.77 39.04 30.96 33.78 31.24 34.69 35.00 32.57 35.42 34.69 33.65 34.02 35.22 36.50 35.95
45.96 45.75 45.70 45.84 45.98 44.39 34.33 35.49 36.06 34.12 30.12 27.34 26.33 27.38 30.04 31.14 33.53 34.26 35.45 33.93 32.72 31.74 33.59 37.09 37.96 37.15 36.84 36.23 33.60 33.27 34.11 31.15 28.84 25.27 31.97 32.59 28.25 32.92 34.39 35.10 37.11 36.61 32.33 37.39
45.77 45.79 45.64 45.52 45.64 44.49 36.96 35.66 35.05 27.27 24.05 26.78 28.43 31.31 32.04 31.22 32.16 30.16 34.00 34.21 31.86 35.97 40.49 39.39 37.03 35.98 36.34 36.14 36.08 37.78 31.92 32.81 31.60 26.66 28.30 20.19 32.64 39.03 38.58 36.78 38.26 39.70 39.92 41.20
45.85 45.59 45.47 45.66 45.68 45.30 38.41 37.20 33.35 30.93 26.50 29.94 30.14 30.36 30.43 32.19 32.74 31.25 32.15 34.48 36.42 37.86 36.59 28.27 25.86 26.66 29.89 32.54 35.83 35.48 36.52 31.45 27.61 24.77 24.45 28.85 33.46 35.71 35.81 34.20 34.62 40.26 39.43 40.55
45.64 45.42 45.35 45.42 45.68 45.30 40.58 38.10 38.95 35.06 29.56 25.84 31.71 28.71 30.05 26.40 26.67 28.42 31.32 36.27 37.37 36.60 31.38 29.15 23.39 20.14 26.45 25.72 29.83 37.09 35.64 35.00 28.66 25.64 22.24 19.40 29.84 37.33 39.43 38.81 28.63 39.24 40.19 39.24
45.70 45.32 45.28 45.16 45.27 45.08 42.44 38.00 40.53 35.08 29.50 31.31 32.20 25.77 26.96 31.20 28.58 26.49 29.97 31.71 31.32 34.77 22.62 22.18 22.91 23.13 28.96 22.85 23.56 22.09 26.40 29.92 26.90 27.17 24.32 28.59 35.89 38.53 40.54 26.74 29.01 38.60 39.58 39.90
45.33 45.40 45.02 45.02 45.18 45.04 42.44 38.08 40.19 35.15 32.30 31.26 33.99 34.25 30.53 30.68 29.75 25.25 28.82 27.01 26.84 26.18 23.82 25.55 25.49 25.63 26.65 26.44 29.13 25.74 20.93 17.90 21.36 23.33 23.13 21.74 38.73 37.30 31.99 35.13 40.00 39.37 40.26 40.45
45.21 44.93 44.47 44.66 44.82 44.75 43.73 35.81 41.66 42.06 35.04 32.48 36.26 36.78 37.97 36.77 35.69 32.29 32.94 30.44 29.33 28.57 29.94 26.90 25.18 27.18 28.55 26.60 22.02 31.67 21.26 26.91 24.05 26.39 25.89 37.15 39.34 38.30 42.08 41.60 40.12 39.98 39.47 38.83
44.55 44.12 44.01 44.23 44.20 44.19 42.96 37.02 38.93 39.41 32.65 32.82 32.97 31.69 37.00 40.01 39.52 41.74 32.45 34.04 35.19 34.36 36.31 32.68 32.22 26.57 29.67 21.99 24.07 25.56 31.64 35.31 25.06 29.92 32.72 35.77 38.59 40.93 42.79 43.27 40.54 41.42 41.27 40.00
44.05 43.82 43.75 43.85 43.98 44.03 43.51 37.72 39.03 37.42 33.03 27.51 29.93 40.20 36.61 40.62 40.44 39.57 39.67 37.93 38.59 36.17 33.76 32.13 30.77 26.48 31.43 25.89 28.37 26.33 28.29 32.65 31.13 29.30 33.67 36.65 37.77 38.97 39.09 40.73 41.63 41.52 41.68 39.89
43.43 43.24 43.35 43.39 43.54 43.59 41.00 38.80 39.41 39.80 34.46 28.76 29.41 35.47 37.72 39.40 40.98 39.71 39.46 38.26 36.28 34.39 32.62 30.06 28.44 30.68 29.57 29.55 30.07 27.15 31.51 29.59 26.17 25.79 34.29 34.17 35.10 37.65 41.42 38.98 40.08 41.88 40.56 37.59
43.69 43.23 42.77 43.14 43.39 43.15 36.92 31.89 38.42 41.14 40.42 32.31 22.53 33.85 34.83 37.29 39.38 38.95 37.75 37.65 36.42 34.30 31.89 30.93 32.31 35.04 30.39 23.68 23.58 31.63 34.31 36.11 35.31 32.87 39.02 38.92 40.24 41.40 41.86 41.26 39.66 39.03 38.33 37.26
43.12 42.92 42.72 42.80 43.24 38.01 32.88 33.56 38.18 42.13 41.72 32.87 22.02 24.00 34.48 38.15 36.77 35.19 35.52 36.37 34.21 35.18 31.99 29.62 29.32 29.61 30.97 25.69 25.05 32.35 35.31 37.30 37.79 38.67 39.00 37.04 40.59 39.40 41.68 41.68 41.41 41.14 39.69 38.80
43.23 43.18 43.20 43.03 42.82 40.40 34.28 37.97 41.75 41.15 36.83 34.59 17.94 22.48 25.68 36.91 27.48 25.99 35.43 29.22 32.07 29.75 28.48 27.14 26.03 29.54 29.92 25.48 31.16 33.84 35.79 36.37 36.46 38.15 39.63 38.11 39.64 39.12 38.99 40.34 40.37 39.21 37.40 37.14
43.00 42.73 42.37 38.14 35.64 32.15 32.93 43.02 42.88 39.74 33.60 21.87 24.28 19.69 16.29 32.99 29.46 30.18 30.87 32.95 28.81 30.97 30.20 28.38 28.82 24.59 25.06 29.51 31.87 33.18 35.39 35.26 36.24 37.85 37.82 36.93 36.30 36.76 36.69 36.87 37.09 35.68 35.36 34.07
42.69 38.17 30.90 22.16 32.89 43.44 41.74 36.82 33.54 33.03 33.65 31.51 24.91 26.76 24.35 30.66 31.60 31.36 28.27 31.75 28.15 24.73 28.46 31.29 25.22 26.77 32.34 33.97 35.27 35.58 35.92 36.80 37.84 34.93 33.01 34.84 35.49 35.22 35.93 36.76 36.79 34.82 32.61 31.21
34.17 30.11 27.40 35.85 42.95 35.82 31.71 28.04 26.09 28.15 26.04 28.58 28.10 27.87 24.48 32.86 26.39 27.71 31.83 28.70 27.29 24.55 27.17 27.06 27.30 26.95 32.56 36.94 36.57 37.38 37.66 38.03 38.51 39.70 38.88 38.80 38.15 37.28 36.87 36.85 35.50 33.75 32.62 29.76
35.69 36.06 38.99 38.25 34.26 30.54 25.38 22.92 26.67 26.30 24.86 29.62 28.71 29.74 31.00 30.85 33.50 27.72 31.28 28.50 28.75 22.92 32.78 28.54 25.97 30.25 35.36 36.75 38.89 39.36 39.31 38.88 38.18 40.34 38.86 39.06 39.45 38.75 37.19 35.22 34.04 31.40 29.61 27.26
36.54 33.07 29.53 30.80 29.68 21.76 22.08 17.16 23.48 25.11 30.50 33.27 32.85 30.75 32.28 33.03 34.49 31.19 29.15 25.92 23.72 32.43 28.22 26.82 28.88 33.32 35.65 37.98 39.14 39.00 39.06 39.01 38.79 39.08 40.16 40.40 38.41 37.07 34.82 31.01 28.92 27.68 25.55 24.76
28.23 26.43 17.13 25.82 23.68 24.55 26.11 26.90 28.15 31.23 32.28 32.76 33.08 31.49 30.60 31.72 29.29 30.74 25.91 28.69 29.54 23.44 21.14 25.57 30.18 32.04 34.98 38.27 39.50 39.19 37.70 35.50 35.62 38.06 37.29 33.75 31.26 28.82 27.40 26.49 25.52 24.68 22.49 20.56
27.46 30.39 21.30 22.91 27.61 29.61 30.87 32.15 32.47 34.23 35.59 34.06 32.84 32.07 31.52 30.78 29.10 29.96 29.01 25.57 22.22 25.24 25.36 29.32 29.43 32.54 33.10 36.93 36.58 34.93 33.72 30.42 30.12 30.22 28.34 27.13 26.15 24.54 22.09 22.38 24.19 22.76 20.30 18.77
29.53 29.34 26.36 29.18 28.12 28.25 31.17 30.36 30.79 35.24 33.66 34.14 34.40 31.33 29.11 28.14 28.89 27.19 25.58 25.25 24.12 27.59 27.84 28.33 29.83 30.18 31.66 33.96 33.32 31.93 30.74 29.22 27.31 26.17 26.00 24.85 24.60 23.79 21.61 20.45 19.58 18.76 19.68 18.09
28.28 28.10 29.51 30.06 28.65 29.83 29.43 31.22 30.88 35.97 32.25 27.59 30.23 28.54 26.87 30.12 24.72 25.59 28.17 25.24 28.87 28.79 28.44 28.29 29.30 30.08 32.13 31.48 30.91 28.88 28.49 27.80 26.21 25.12 24.78 23.59 22.99 22.77 22.08 20.25 15.94 18.84 16.62 15.58
MSLP
1018.63 1018.83 1019.01 1018.91 1018.96 1018.96 1019.04 1018.78 1018.46 1016.64 1016.53 1017.96 1017.75 1017.00 1015.93 1015.48 1014.66 1014.42 1014.11 1013.78 1013.37 1013.20 1013.24 1012.78 1012.49 1011.67 1011.60 1011.29 1011.36 1011.76 1012.09 1012.19 1009.65 1007.93 1006.18 1005.32 1005.49 1005.15 1005.65 1006.34 1007.14 1006.98 1006.35 1004.23
1018.50 1018.59 1018.70 1018.78 1018.94 1018.90 1019.21 1018.88 1018.21 1016.99 1017.19 1017.62 1017.73 1016.85 1016.14 1015.70 1014.89 1014.90 1014.47 1014.05 1013.79 1013.84 1013.62 1013.36 1012.51 1011.93 1011.85 1011.85 1012.20 1013.21 1013.30 1012.75 1011.40 1008.50 1007.06 1006.08 1006.95 1007.70 1008.39 1008.43 1008.25 1007.50 1007.35 1004.87
1018.16 1018.27 1018.46 1018.68 1018.90 1018.93 1019.25 1019.22 1018.79 1018.14 1017.87 1017.67 1017.62 1017.48 1016.68 1016.01 1014.91 1014.46 1014.42 1014.20 1014.13 1014.07 1013.84 1013.42 1012.76 1012.51 1012.18 1012.13 1012.47 1013.31 1013.94 1013.55 1013.10 1011.42 1010.37 1009.95 1009.96 1009.65 1009.81 1010.85 1010.29 1008.86 1007.50 1006.05
1017.81 1018.01 1018.22 1018.48 1018.71 1018.81 1019.37 1019.23 1018.70 1017.67 1018.21 1018.12 1017.74 1017.68 1016.87 1015.88 1015.10 1014.56 1014.50 1014.39 1014.42 1014.65 1014.57 1014.02 1013.64 1013.24 1012.69 1012.43 1012.50 1013.02 1014.45 1013.42 1012.99 1011.42 1010.44 1010.29 1010.03 1010.11 1010.51 1010.46 1010.43 1009.31 1007.59 1007.26
1017.51 1017.75 1017.95 1018.28 1018.40 1018.70 1019.28 1019.04 1018.92 1017.75 1017.65 1017.52 1017.21 1017.34 1016.59 1015.82 1014.87 1014.98 1014.11 1014.44 1014.22 1014.45 1014.72 1014.89 1014.52 1014.64 1014.23 1013.60 1012.92 1013.39 1014.06 1013.02 1012.45 1011.65 1011.57 1010.73 1010.03 1009.96 1010.01 1010.14 1009.67 1008.50 1007.07 1005.61
1017.30 1017.52 1017.73 1017.90 1018.17 1018.58 1018.85 1018.54 1018.23 1018.54 1017.84 1017.53 1017.37 1016.27 1015.87 1015.32 1014.98 1014.39 1014.10 1013.88 1013.86 1013.76 1013.60 1013.79 1014.01 1014.29 1014.18 1013.84 1013.54 1013.32 1013.46 1013.65 1012.99 1011.82 1011.37 1010.62 1009.39 1008.59 1008.21 1007.69 1007.41 1006.73 1005.87 1004.79
1016.95 1017.16 1017.37 1017.60 1017.80 1018.16 1018.55 1018.43 1018.59 1018.82 1018.07 1017.83 1016.88 1016.11 1015.78 1015.21 1014.78 1014.32 1013.92 1013.65 1013.64 1013.41 1013.01 1013.62 1013.94 1013.54 1012.96 1012.31 1011.68 1012.17 1012.51 1012.93 1013.08 1011.60 1011.13 1009.27 1007.26 1006.03 1005.64 1005.54 1005.19 1004.97 1004.08 1003.33
1016.46 1016.71 1016.94 1017.18 1017.40 1017.68 1018.36 1018.43 1018.88 1018.93 1018.14 1017.45 1016.61 1016.21 1015.86 1015.40 1014.92 1014.50 1013.91 1013.58 1013.39 1013.33 1013.62 1014.00 1013.55 1012.46 1011.72 1010.35 1010.04 1010.80 1011.73 1012.28 1012.29 1011.68 1010.58 1008.53 1007.08 1005.43 1004.62 1004.21 1003.97 1003.49 1002.96 1002.88
1015.89 1016.16 1016.39 1016.68 1016.93 1017.22 1017.78 1018.01 1018.26 1018.76 1018.38 1016.69 1016.84 1016.51 1016.09 1015.77 1015.40 1014.78 1013.90 1013.42 1013.41 1013.52 1013.91 1014.35 1013.75 1012.99 1011.90 1011.38 1010.42 1009.55 1010.11 1010.71 1011.47 1011.06 1010.07 1008.45 1006.41 1004.48 1004.12 1004.05 1003.70 1002.94 1003.04 1002.97
1015.21 1015.50 1015.80 1016.09 1016.37 1016.62 1017.13 1017.32 1017.51 1018.22 1018.08 1016.16 1016.90 1016.48 1016.05 1015.65 1015.43 1015.10 1014.18 1013.78 1013.35 1013.60 1014.04 1014.31 1013.86 1012.70 1012.16 1011.02 1010.59 1010.16 1009.80 1010.39 1010.34 1010.15 1008.96 1007.28 1005.87 1005.07 1004.32 1004.12 1003.47 1003.12 1002.80 1002.79
1014.54 1014.87 1015.21 1015.53 1015.78 1015.97 1016.52 1016.65 1016.98 1017.67 1017.52 1015.89 1016.59 1016.01 1015.81 1015.25 1015.25 1015.28 1014.30 1014.64 1013.68 1013.66 1013.85 1013.58 1012.72 1012.17 1011.29 1010.25 1009.43 1009.20 1009.83 1010.05 1009.75 1009.24 1008.48 1007.16 1005.21 1005.46 1004.97 1004.25 1003.37 1003.33 1003.08 1002.99
1013.98 1014.36 1014.69 1014.98 1015.24 1015.49 1016.01 1016.70 1016.60 1016.80 1017.46 1016.18 1015.83 1015.31 1014.64 1014.30 1014.01 1014.84 1014.39 1014.23 1014.20 1014.00 1013.60 1012.76 1011.67 1011.27 1010.95 1010.16 1009.48 1008.75 1008.97 1009.04 1008.83 1007.95 1006.76 1005.63 1004.81 1004.70 1004.96 1004.67 1003.96 1003.54 1003.50 1003.71
1013.57 1013.94 1014.25 1014.52 1014.80 1015.07 1015.58 1016.13 1016.48 1017.00 1016.68 1015.95 1015.28 1013.69 1011.90 1012.78 1012.88 1012.90 1013.49 1013.14 1013.50 1013.46 1012.76 1012.71 1011.34 1011.08 1010.12 1009.84 1009.30 1008.46 1007.96 1007.53 1008.10 1007.42 1005.83 1005.72 1005.14 1004.47 1004.46 1003.83 1004.35 1004.03 1003.77 1003.93
1013.27 1013.60 1013.88 1014.17 1014.55 1014.86 1015.23 1015.93 1016.13 1016.78 1016.87 1015.47 1012.81 1011.52 1011.23 1010.85 1010.83 1011.34 1011.65 1011.95 1012.60 1012.99 1012.64 1011.43 1011.27 1010.93 1009.24 1008.94 1008.28 1008.24 1007.66 1007.43 1006.78 1006.07 1005.29 1005.20 1004.73 1004.48 1004.68 1004.84 1004.56 1004.09 1004.05 1004.08
1013.02 1013.36 1013.68 1013.96 1014.34 1014.67 1015.08 1015.46 1015.51 1015.80 1016.53 1014.76 1013.34 1011.75 1009.91 1009.35 1009.55 1009.86 1010.34 1011.05 1011.54 1011.78 1011.89 1011.12 1011.09 1009.93 1009.23 1008.32 1007.81 1006.93 1006.70 1006.22 1006.19 1005.04 1004.48 1004.49 1004.62 1004.62 1004.77 1004.74 1004.23 1003.53 1004.59 1004.61
1012.86 1013.27 1013.66 1014.00 1014.27 1014.57 1015.16 1015.36 1014.35 1014.64 1015.17 1015.05 1013.46 1010.78 1009.38 1008.64 1008.49 1008.85 1009.22 1009.66 1010.04 1010.44 1010.93 1010.86 1010.15 1008.90 1008.87 1008.33 1007.34 1005.56 1005.38 1004.70 1004.18 1004.29 1003.78 1003.92 1004.08 1004.04 1004.65 1004.57 1004.17 1003.84 1004.26 1004.59
1012.87 1013.24 1013.62 1013.88 1014.12 1014.65 1015.04 1014.85 1014.64 1014.34 1014.52 1014.32 1013.53 1011.50 1008.97 1008.25 1008.14 1008.40 1008.81 1008.81 1009.10 1009.68 1010.36 1009.86 1009.25 1008.58 1008.60 1007.82 1006.66 1004.61 1004.48 1004.09 1003.58 1003.05 1003.32 1003.46 1003.75 1003.18 1003.97 1004.69 1004.55 1004.75 1005.02 1005.33
1012.92 1013.29 1013.63 1013.95 1014.20 1014.43 1014.42 1013.85 1013.81 1013.94 1014.37 1013.87 1013.51 1011.63 1010.13 1008.46 1008.62 1008.68 1008.45 1008.70 1008.85 1008.98 1009.16 1008.89 1008.52 1008.16 1007.56 1006.34 1004.32 1003.36 1002.99 1002.83 1002.58 1002.23 1002.00 1002.54 1003.11 1003.88 1004.29 1004.58 1004.73 1005.23 1005.67 1006.22
1013.07 1013.51 1013.85 1014.18 1014.39 1014.16 1013.20 1012.50 1013.10 1013.68 1014.34 1013.91 1013.12 1012.13 1011.07 1009.95 1009.50 1009.10 1009.23 1009.34 1009.20 1008.72 1008.46 1007.90 1007.55 1006.73 1005.21 1003.10 1002.56 1002.37 1002.14 1001.95 1001.63 1001.98 1002.28 1003.02 1003.64 1004.28 1004.60 1004.74 1005.04 1005.43 1006.27 1006.94
1013.37 1013.83 1014.14 1014.21 1013.51 1012.80 1012.94 1013.52 1013.63 1013.64 1013.44 1013.34 1012.45 1011.00 1010.59 1010.16 1009.81 1009.54 1009.97 1009.24 1008.85 1008.17 1006.96 1006.52 1005.83 1003.98 1002.39 1001.79 1001.43 1001.27 1001.23 1001.16 1001.03 1001.94 1002.51 1003.15 1003.89 1004.39 1004.76 1005.11 1005.36 1006.00 1006.75 1007.84
1013.62 1013.98 1013.76 1013.19 1012.58 1012.96 1012.92 1012.95 1013.06 1012.62 1012.33 1011.47 1010.56 1010.08 1009.58 1009.09 1009.34 1009.38 1009.55 1008.52 1007.98 1007.12 1005.79 1005.65 1004.40 1002.46 1001.58 1000.75 1000.30 999.97 1000.16 1000.34 1000.37 1000.81 1001.32 1002.31 1003.07 1004.10 1004.74 1005.33 1005.98 1006.60 1007.27 1008.43
1012.84 1012.79 1012.83 1013.00 1013.13 1012.92 1012.77 1012.12 1011.69 1011.32 1010.19 1009.26 1009.33 1008.94 1008.48 1008.37 1008.23 1008.54 1008.43 1007.56 1007.36 1006.02 1005.30 1004.96 1003.38 1002.49 1001.64 1000.95 999.89 999.48 998.96 998.94 999.87 1000.58 1001.43 1002.40 1003.20 1003.94 1004.57 1005.32 1006.21 1007.08 1008.12 1009.49
1012.58 1012.77 1013.02 1013.02 1012.39 1012.38 1011.72 1011.03 1010.42 1009.90 1009.35 1008.92 1008.79 1008.46 1007.91 1007.54 1007.60 1007.69 1007.57 1007.11 1005.90 1005.00 1004.54 1003.56 1002.97 1002.54 1001.45 1000.54 1000.04 999.74 998.69 998.72 999.91 1000.95 1001.82 1002.76 1003.60 1003.96 1004.69 1005.96 1007.04 1008.12 1009.40 1010.56
1012.72 1013.02 1012.88 1012.24 1011.50 1011.03 1010.04 1009.83 1009.81 1009.36 1008.71 1008.16 1007.77 1007.40 1007.44 1006.94 1007.06 1006.70 1006.47 1005.66 1005.30 1004.86 1004.23 1003.64 1003.46 1002.97 1002.04 1001.08 1000.85 1000.94 1000.83 1000.86 1001.21 1001.99 1002.88 1003.50 1004.29 1005.39 1006.20 1006.88 1007.96 1008.99 1010.38 1011.48
1012.99 1012.55 1012.10 1011.29 1010.43 1009.69 1009.23 1008.81 1008.72 1007.80 1007.44 1007.36 1006.94 1006.64 1006.32 1006.08 1006.13 1005.91 1005.61 1005.27 1004.98 1004.54 1004.17 1004.08 1003.93 1003.58 1003.17 1002.40 1002.02 1002.16 1002.42 1002.78 1003.03 1003.45 1004.03 1004.67 1005.62 1006.58 1007.84 1008.33 1008.92 1009.75 1011.06 1012.11
1012.88 1012.32 1011.35 1010.37 1010.11 1009.44 1009.13 1008.82 1008.40 1007.71 1007.39 1006.98 1006.40 1005.97 1005.57 1005.40 1005.42 1005.25 1005.07 1004.86 1004.33 1004.34 1004.56 1004.68 1004.42 1004.20 1003.87 1003.32 1003.28 1003.58 1003.71 1004.02 1004.40 1004.91 1005.28 1005.92 1006.65 1007.49 1008.62 1009.49 1010.13 1010.88 1011.64 1012.53
1012.22 1011.14 1010.38 1010.34 1010.11 1009.55 1008.99 1008.69 1008.26 1007.82 1007.74 1007.21 1006.11 1005.30 1004.95 1005.07 1005.11 1004.91 1004.57 1004.63 1004.60 1004.61 1004.85 1004.86 1004.88 1004.79 1004.51 1004.34 1004.28 1004.45 1004.72 1005.01 1005.42 1005.95 1006.52 1007.12 1007.83 1008.41 1009.21 1010.28 1011.20 1011.60 1012.30 1012.97
Wind_Speed
9 6 4 2 1 2 2 2 2 4 6 4 3 10 7 6 17 14 12 12 14 16 16 15 10 11 9 10 6 9 1 5 6 10 15 17 5 4 3 4 7 3 9 15
10 7 5 4 2 2 3 2 3 3 5 5 7 4 12 13 18 14 8 11 12 15 18 16 13 16 12 8 4 4 4 2 5 8 2 4 6 8 12 6 2 12 12 13
9 8 7 5 4 3 1 1 2 2 2 2 2 2 8 7 7 12 14 16 16 17 18 15 13 18 9 7 11 9 3 4 7 5 12 13 9 18 18 9 3 5 8 14
10 9 8 7 7 5 1 0 4 3 3 5 5 5 4 9 9 5 2 5 8 11 8 13 16 15 19 13 12 7 4 6 11 15 18 17 17 16 16 8 12 7 9 9
10 9 8 9 8 6 1 3 2 4 4 7 7 10 9 16 18 14 17 14 14 12 11 10 19 14 10 10 6 5 4 4 3 6 17 23 19 14 15 17 18 22 18 20
11 10 10 10 9 8 3 3 5 3 4 3 3 9 9 10 13 15 14 14 12 14 14 11 9 7 14 12 13 17 8 4 4 14 16 12 11 14 19 23 21 20 18 20
13 12 11 11 11 11 2 2 2 2 6 4 8 11 13 13 14 15 11 8 10 11 11 2 7 13 17 17 16 9 8 5 4 6 10 16 5 15 19 16 16 18 19 17
15 13 12 12 12 13 3 2 1 2 6 4 9 15 15 14 12 13 14 12 7 6 3 3 7 5 5 11 15 16 16 5 5 6 13 11 10 9 7 6 8 9 10 8
15 15 14 12 13 15 5 4 3 2 3 10 11 13 12 11 8 12 16 12 5 6 2 2 8 5 2 4 6 18 18 15 8 5 11 12 11 16 12 12 9 9 2 7
15 15 14 12 13 15 7 3 7 2 3 10 4 5 5 2 4 6 9 8 6 4 2 7 13 11 5 7 12 12 2 7 13 12 10 6 11 7 9 7 13 5 7 9
15 15 14 13 13 14 7 3 5 5 4 14 8 12 11 7 6 10 5 8 5 1 4 5 8 8 9 11 13 7 7 4 7 3 5 8 12 13 4 6 4 4 5 2
13 14 12 13 13 13 11 3 3 3 5 5 2 11 16 19 21 11 6 8 4 4 4 4 2 5 3 3 5 1 3 8 6 8 7 3 13 14 2 6 1 3 4 4
12 13 12 12 12 11 11 3 4 2 3 7 8 14 23 18 19 14 10 6 7 7 11 5 1 5 3 3 6 2 3 5 3 2 5 7 10 8 6 4 3 4 5 6
11 11 12 12 9 9 10 3 3 3 3 4 6 10 10 10 15 18 13 15 5 4 4 5 1 3 4 4 4 4 6 4 5 5 4 6 8 8 3 1 5 6 6 7
12 12 11 9 8 8 4 3 4 5 4 4 8 14 20 16 9 15 17 14 13 7 3 0 5 4 3 3 1 9 5 9 4 8 10 9 8 2 5 8 9 9 8 6
12 10 8 8 6 4 2 3 3 7 6 5 3 6 9 12 8 16 15 10 8 4 3 3 4 6 0 2 4 9 7 10 5 5 2 4 8 5 7 5 8 4 7 10
11 8 6 6 5 3 3 2 2 4 4 3 4 5 6 4 6 3 5 7 4 4 3 4 4 2 2 3 12 14 13 14 14 17 4 3 5 3 6 6 6 7 9 9
9 7 5 4 2 3 4 5 12 3 2 3 2 6 4 6 3 2 1 1 1 2 4 1 3 2 5 7 11 14 16 14 16 18 7 4 6 6 5 6 9 10 10 11
10 7 4 2 1 3 5 9 11 3 3 2 3 3 5 4 3 1 3 1 2 3 5 4 4 4 9 12 11 12 11 11 12 3 9 8 8 8 7 8 10 12 11 12
12 4 3 2 4 4 8 1 2 3 3 4 5 2 7 3 1 2 3 2 3 4 6 2 3 9 21 20 18 16 10 11 12 6 7 7 7 7 9 9 8 6 11 13
1 2 3 3 1 2 2 3 3 3 4 5 5 9 7 3 4 4 3 3 3 4 4 7 4 7 7 9 16 18 18 16 14 7 12 12 12 10 9 8 8 11 13 13
5 4 1 2 1 4 4 4 3 5 5 3 3 3 6 4 4 3 3 3 3 6 3 4 4 2 9 11 8 13 18 19 14 13 12 10 11 11 9 11 11 10 13 14
1 1 1 3 3 4 5 4 4 2 3 2 2 3 3 3 4 3 3 5 6 1 4 3 1 3 9 6 3 7 9 13 14 13 11 8 8 8 9 11 12 14 13 11
2 4 4 4 3 5 4 1 5 5 5 6 5 4 3 3 3 2 4 4 2 3 3 1 2 8 11 5 5 4 7 8 9 9 5 9 12 12 10 14 12 14 13 10
1 3 4 5 6 3 4 6 3 5 3 4 4 3 3 3 4 4 2 2 3 4 2 1 3 7 10 6 6 6 6 6 7 6 10 13 14 13 10 7 10 12 12 11
2 5 4 4 2 4 2 2 4 3 3 5 3 3 2 4 2 4 4 3 3 0 1 1 4 6 9 2 5 5 5 7 8 8 10 11 12 13 11 9 8 8 11 11
5 5 4 5 4 7 5 1 3 3 3 3 3 4 3 3 2 3 3 2 1 3 2 1 2 3 6 3 3 4 5 7 8 9 9 10 9 11 12 12 4 8 7 8
Wind_Direction
208 202 229 250 305 316 325 274 236 293 113 167 203 228 223 227 267 292 295 294 271 273 282 288 279 278 282 301 323 320 37 277 275 250 286 298 346 318 250 181 248 221 220 238
208 201 220 247 270 296 319 221 239 275 103 209 222 269 258 263 267 265 277 275 281 282 286 283 265 272 280 276 27 320 17 268 306 306 289 310 342 45 15 340 39 235 239 261
213 211 208 222 234 263 345 313 257 315 48 179 120 230 260 276 286 280 262 269 274 278 283 276 278 278 280 316 306 179 171 197 239 270 297 296 294 315 324 314 264 310 254 298
213 214 212 215 218 216 111 20 231 220 176 247 213 191 276 276 278 241 350 293 289 302 303 315 282 282 301 288 286 155 219 238 229 247 252 261 257 262 297 292 287 238 277 262
221 216 221 222 214 198 229 177 180 298 282 288 210 219 238 249 266 274 280 268 263 263 253 247 289 295 288 286 294 162 244 274 221 257 269 272 270 257 221 250 269 272 260 261
214 218 224 225 217 183 213 239 308 85 267 300 279 249 255 252 257 267 274 283 270 266 261 258 268 269 270 251 262 269 178 230 228 269 272 299 261 234 233 237 241 243 251 249
215 215 220 223 223 201 225 283 15 106 267 232 247 284 278 284 285 288 294 312 310 295 268 345 272 261 255 245 247 233 233 202 233 274 308 266 296 245 236 230 237 247 246 249
221 217 218 223 224 217 205 250 172 207 268 273 277 258 264 280 297 302 305 292 302 333 2 350 299 291 268 235 239 229 216 212 247 248 271 293 307 277 234 248 257 266 259 285
222 220 217 220 223 226 220 222 178 194 277 242 259 277 289 286 291 299 280 288 346 323 294 227 258 244 320 278 294 224 209 206 210 226 240 257 233 252 247 255 254 255 179 287
224 220 218 221 229 238 222 221 187 186 254 261 257 250 250 284 313 286 305 297 315 212 188 255 259 262 249 246 254 264 238 211 231 241 246 284 315 294 284 266 257 313 271 227
224 217 218 226 235 237 205 229 185 160 230 269 268 271 272 270 227 243 273 352 282 272 210 232 239 222 244 236 242 234 214 188 231 223 233 270 222 269 227 232 311 66 356 341
219 215 217 226 228 225 196 217 178 190 228 267 322 275 263 250 248 258 248 239 299 273 309 274 198 199 242 17 262 275 275 213 236 182 215 302 309 288 277 325 344 353 82 78
211 210 220 223 221 219 190 188 153 164 251 270 245 254 250 236 237 230 242 231 208 258 238 239 199 251 155 180 229 203 258 259 212 306 259 247 264 287 241 198 257 305 144 145
204 213 211 200 214 218 196 180 169 112 289 265 271 254 252 237 231 225 215 228 221 239 266 208 181 234 211 216 225 188 193 337 262 273 306 282 263 286 295 228 299 313 154 150
204 202 200 198 203 213 208 201 217 177 213 306 293 296 269 252 227 236 205 205 231 236 230 343 215 245 260 252 239 255 164 243 200 248 222 216 250 287 229 175 208 212 199 138
190 191 191 191 188 157 71 310 257 213 187 266 282 285 290 272 248 209 222 227 219 202 172 213 239 233 161 245 240 248 250 265 235 278 340 181 255 302 267 235 207 89 170 149
188 192 207 199 178 148 176 236 229 310 215 235 296 282 264 260 235 225 218 220 215 177 215 228 222 266 5 235 257 262 270 274 287 283 158 210 202 192 231 231 156 113 81 89
182 183 181 196 236 297 288 220 231 222 220 263 253 269 328 2 307 325 25 249 239 280 205 278 206 220 203 235 245 242 248 256 259 275 199 181 147 129 146 149 128 127 119 110
153 144 133 89 182 234 236 231 174 203 174 244 237 223 263 355 282 344 352 22 245 229 224 228 153 215 224 226 253 241 244 249 261 205 124 121 130 140 133 126 138 135 148 136
139 142 88 283 232 134 100 103 186 212 209 225 245 204 247 112 82 33 310 204 244 250 228 210 207 249 254 264 260 254 241 231 252 138 133 135 143 158 157 158 144 143 129 121
132 150 222 237 317 112 247 234 195 187 236 212 234 210 239 226 180 198 215 223 231 252 233 185 239 265 269 276 249 250 248 242 250 199 168 167 167 173 169 173 165 135 126 124
187 201 134 147 173 201 209 223 222 217 242 195 213 257 205 229 183 140 209 230 198 251 136 223 243 308 325 297 297 269 244 222 220 151 138 149 158 171 166 148 134 120 113 120
183 250 167 216 179 232 227 223 224 254 295 249 260 271 245 205 191 194 196 228 235 355 225 248 311 282 295 303 52 11 27 112 113 115 121 133 181 144 124 113 113 114 112 120
191 185 263 235 201 242 214 310 325 268 238 258 242 228 231 187 180 203 223 236 326 278 253 283 344 333 324 341 88 53 41 53 96 129 168 122 103 95 100 115 123 121 125 129
253 251 236 234 240 282 244 219 240 303 302 312 285 237 213 178 221 196 267 214 239 232 272 46 320 341 343 353 31 63 72 58 83 99 112 110 111 108 95 96 114 115 119 122
246 243 268 276 307 288 338 298 292 282 307 298 237 256 219 212 219 196 216 266 239 20 237 285 337 339 335 11 67 65 73 90 90 86 97 103 111 117 111 91 96 108 126 127
245 247 222 232 244 264 276 217 262 309 341 268 279 240 248 121 248 230 203 260 256 196 216 201 347 339 321 10 92 100 99 100 102 100 93 97 103 109 108 109 98 104 99 109